Location: Asheville, NC
(35.6000°N, 82.5500°W)
Time: 23:27:34
(UTC-04:00)

STARS - Pass Details

Date: 06 January 2018
Orbit: 626 x 640 km, 98.3° (Epoch: 17 June)

Event Time Altitude Azimuth Distance (km) Brightness Sun altitude
Rises 18:08:10 0° 20° (NNE) 2,923 ? -7.5°
Reaches altitude 10° 18:10:27 10° 27° (NNE) 2,013 ? -7.9°
Maximum altitude 18:14:38 44° 100° (E) 876 ? -8.7°
Drops below altitude 10° 18:18:49 10° 172° (S) 2,008 ? -9.5°
Sets 18:21:05 0° 179° (S) 2,914 ? -9.9°
